Mankato, MN

12:23 AM CDT on August 24, 2019 (GMT -0500)
Mankato Regional

Weather History for KMKT - May, 2019

Change the Weather History Date:

Monday, May 13, 2019

  Actual Average Record
Temperature  
Mean Temperature 54 °F -  
Max Temperature 66 °F 64 °F 91 °F (2007)
Min Temperature 41 °F 46 °F 28 °F (1997)
Degree Days  
Heating Degree Days 12    
Growing Degree Days 4 (Base 50)    
Moisture  
Dew Point 38 °F    
Average Humidity 55    
Maximum Humidity 93    
Minimum Humidity 33    
Precipitation  
Precipitation 0.00 in - - ()
Sea Level Pressure  
Sea Level Pressure 29.95 in    
Wind  
Wind Speed 4 mph (SSW)    
Max Wind Speed 13 mph    
Max Gust Speed -    
Visibility 10 miles    
Events      
Averages and records for this station are not official NWS values.
T = Trace of Precipitation, MM = Missing Value Source: NWS Daily Summary

Daily Weather History Graph

Daily Weather History Graph

Search for Another Location

Airport or City:

Astronomy

May. 13, 2019 Rise Set
Actual Time 5:51 AM CDT 8:33 PM CDT
Civil Twilight 5:18 AM CDT 9:06 PM CDT
Nautical Twilight 4:36 AM CDT 9:48 PM CDT
Astronomical Twilight 3:48 AM CDT 10:37 PM CDT
Moon 2:29 PM CDT (5/13) 3:27 AM CDT (5/13)
Length of Visible Light 15h 48m
Length of Day
14h 41m
Waxing Gibbous, 69% of the Moon is Illuminated
May 13
Waxing Gibbous
May 18
Full
May 26
Last Quarter
Jun 3
New
Jun 10
First Quarter

Hourly Weather History & Observations

Time (CDT) Temp. Windchill Dew Point Humidity Pressure Visibility Wind Dir Wind Speed Gust Speed Precip Events Conditions
12:56 AM 46.0 °F - 42.1 °F 86% 29.93 in 10.0 mi Calm Calm - N/A   Clear
1:56 AM 46.9 °F - 35.1 °F 63% 29.93 in 10.0 mi Calm Calm - N/A   Clear
2:56 AM 46.0 °F 43.9 °F 36.0 °F 68% 29.94 in 10.0 mi South 4.6 mph - N/A   Clear
3:56 AM 42.1 °F - 36.0 °F 79% 29.95 in 10.0 mi Calm Calm - N/A   Clear
4:56 AM 44.1 °F - 35.1 °F 71% 29.96 in 10.0 mi Calm Calm - N/A   Clear
5:56 AM 41.0 °F - 39.0 °F 93% 29.98 in 10.0 mi Calm Calm - N/A   Clear
6:56 AM 42.1 °F 40.2 °F 36.0 °F 79% 29.99 in 10.0 mi SSW 3.5 mph - N/A   Clear
7:56 AM 48.0 °F - 39.9 °F 74% 30.00 in 10.0 mi Calm Calm - N/A   Clear
8:56 AM 54.0 °F - 42.1 °F 64% 30.00 in 10.0 mi West 4.6 mph - N/A   Clear
9:56 AM 55.9 °F - 39.9 °F 55% 30.00 in 10.0 mi West 3.5 mph - N/A   Clear
10:56 AM 60.1 °F - 37.0 °F 42% 29.99 in 10.0 mi South 8.1 mph - N/A   Clear
11:56 AM 60.1 °F - 35.1 °F 39% 29.98 in 10.0 mi South 9.2 mph - N/A   Mostly Cloudy
12:56 PM 61.0 °F - 35.1 °F 38% 29.96 in 10.0 mi South 10.4 mph - N/A   Mostly Cloudy
1:56 PM 63.0 °F - 37.0 °F 38% 29.95 in 10.0 mi West 12.7 mph - N/A   Overcast
2:56 PM 64.0 °F - 36.0 °F 35% 29.94 in 10.0 mi SSW 9.2 mph - N/A   Mostly Cloudy
3:56 PM 63.0 °F - 35.1 °F 35% 29.93 in 10.0 mi South 5.8 mph - N/A   Overcast
4:56 PM 64.9 °F - 36.0 °F 34% 29.92 in 10.0 mi SSW 12.7 mph - N/A   Mostly Cloudy
5:56 PM 66.0 °F - 36.0 °F 33% 29.92 in 10.0 mi SSW 10.4 mph - N/A   Mostly Cloudy
6:56 PM 64.0 °F - 37.0 °F 37% 29.92 in 10.0 mi SSW 6.9 mph - N/A   Scattered Clouds
7:56 PM 63.0 °F - 37.0 °F 38% 29.92 in 10.0 mi South 6.9 mph - N/A   Clear
8:56 PM 59.0 °F - 39.0 °F 48% 29.92 in 10.0 mi SSE 6.9 mph - N/A   Clear
9:56 PM 55.9 °F - 41.0 °F 57% 29.93 in 10.0 mi SE 4.6 mph - N/A   Clear
10:56 PM 54.0 °F - 41.0 °F 62% 29.94 in 10.0 mi SSE 6.9 mph - N/A   Clear